Weather in Gadzhievo

Russia / Murmansk Oblast     69°14′56″N   33°18′54″E
В апреле 2022 года жителям России запретили посещать сайт meteo.paraplan.net по решению Генеральной прокуратуры. Аудитория сайта уменьшилась в 10 раз. Владельцы сайта не видят смысла в поддержке погодного сервера в таких условиях. Сайт будет закрыт в октябре.
temp.,
°C
wind,
m/s
gust,
m/s
humid.,
%
clouds,
%
prec.,
mm/h
press.,
hPa
HPBL,
m
4 october, tue
tue400:00+5wsw1181100 0.0 101537
03:00+3w1186100 0.0 101537
06:00+3s1187100 0.0 101631
09:00+5e1187100 0.0 101544
12:00+6ese1481100 0.0 1015258
15:00+7ese4584100 0.0 1014379
18:00+5sse61076100 0.0 1014293
21:00+5se5887100 0.0 1013385
5 october, wed
wed500:00+4sse1397100 0.4 1011605
03:00+4ssw3598100 1.0 1009561
06:00+4ssw5897100 0.2 1009432
09:00+5s5890100 0.2 1009440
12:00+6ssw687985 0.0 1008509
15:00+6s5882100 0.0 1008464
18:00+6sse3889100 0.2 1007288
21:00+5s489334 0.3 1006203
6 october, thu
thu600:00+6sse4891100 0.0 1005233
03:00+6sse4109240 0.0 1002246
06:00+7sse9148377 0.0 998610
09:00+7sse101780100 0.0 993615
12:00+7sse132279100 0.9 987904
15:00+9s132182100 1.4 983916
18:00+9ssw11178079 0.0 982766
21:00+8sw11177213 0.0 983718
7 october, fri
fri700:00+6sw11168183 0.0 984625
03:00+6sw915795 0.0 986439
06:00+4sw610865 0.0 988209
09:00+5sw612845 0.0 989312
12:00+7sw8107422 0.0 991496
15:00+7wsw811727 0.0 993711
18:00+5sw510814 0.0 995177
21:00+4ssw511845 0.0 996220
8 october, sat
sat800:00+3ssw510905 0.0 997170
03:00+3s61192100 0.0 996225
06:00+4s61190100 0.0 995258
09:00+4s51191100 0.0 994266
12:00+7s71480100 0.0 991511
15:00+7sse71385100 0.1 989546
18:00+7sse81389100 0.4 987446
21:00+7sse51090100 1.0 985253